Temp
-11 -11 -11 -11 -11 -11 -10 -10 -11 -10 -10 -10 -10 -10 -10 -10 -10 -10 -10 -10 -10 -10 -10 -10 -10 -10 -10 -10 -10 -10 -11 -11 -11 -11 -11 -11 -12 -12 -12 -12 -12 -12 -12 -12 -12 -12 -12
-11 -11 -11 -11 -11 -11 -11 -11 -11 -11 -11 -11 -11 -11 -11 -10 -10 -10 -10 -10 -10 -10 -10 -10 -10 -10 -10 -10 -10 -10 -10 -11 -11 -11 -11 -12 -12 -12 -12 -12 -12 -12 -12 -12 -12 -12 -12
-11 -11 -11 -11 -11 -11 -11 -11 -11 -11 -11 -11 -11 -11 -11 -11 -11 -10 -10 -10 -10 -10 -10 -10 -10 -10 -10 -10 -10 -10 -10 -11 -11 -11 -11 -11 -12 -12 -12 -12 -12 -12 -12 -12 -12 -12 -12
-12 -12 -12 -11 -11 -11 -11 -11 -11 -11 -11 -11 -11 -11 -11 -11 -11 -11 -11 -11 -11 -10 -10 -10 -10 -10 -10 -10 -10 -10 -10 -10 -11 -11 -11 -11 -11 -12 -12 -12 -12 -12 -12 -12 -12 -12 -12
-12 -12 -12 -12 -11 -11 -12 -12 -12 -11 -11 -12 -11 -11 -11 -11 -11 -11 -11 -11 -11 -10 -10 -10 -10 -10 -10 -10 -10 -10 -10 -10 -10 -11 -11 -11 -11 -11 -11 -12 -12 -12 -11 -12 -12 -12 -12
-12 -12 -12 -12 -12 -12 -12 -12 -12 -12 -12 -12 -11 -11 -11 -11 -11 -11 -11 -11 -11 -10 -10 -10 -10 -10 -10 -10 -10 -10 -10 -10 -10 -10 -10 -11 -11 -11 -11 -11 -11 -11 -12 -11 -11 -12 -12
-12 -12 -12 -12 -12 -12 -12 -12 -12 -12 -12 -12 -12 -11 -11 -11 -11 -11 -11 -11 -11 -11 -10 -10 -10 -10 -10 -10 -10 -10 -10 -10 -10 -10 -10 -11 -11 -11 -11 -11 -11 -11 -11 -11 -12 -12 -12
-12 -12 -12 -12 -12 -12 -12 -12 -12 -12 -12 -12 -12 -12 -12 -11 -11 -11 -11 -11 -11 -11 -11 -11 -10 -10 -10 -10 -10 -10 -10 -10 -10 -10 -10 -10 -11 -11 -11 -11 -11 -12 -12 -12 -12 -12 -12
-13 -12 -13 -13 -13 -12 -12 -12 -12 -12 -12 -12 -12 -12 -12 -12 -11 -11 -11 -11 -11 -10 -10 -11 -10 -10 -10 -10 -10 -11 -11 -11 -11 -11 -11 -11 -11 -11 -11 -11 -11 -12 -12 -12 -12 -12 -12
-13 -13 -12 -13 -13 -12 -13 -12 -12 -12 -12 -12 -12 -12 -12 -12 -12 -11 -11 -11 -11 -10 -10 -10 -10 -10 -10 -10 -11 -11 -11 -11 -11 -11 -11 -11 -11 -11 -11 -11 -12 -12 -12 -12 -12 -12 -13
-12 -13 -13 -13 -12 -12 -12 -12 -12 -12 -12 -12 -12 -12 -12 -12 -12 -12 -12 -11 -11 -11 -10 -10 -10 -11 -11 -11 -11 -11 -11 -11 -11 -11 -11 -11 -11 -11 -11 -12 -12 -12 -12 -12 -12 -12 -13
-13 -13 -13 -13 -13 -13 -13 -12 -12 -12 -13 -12 -12 -12 -12 -12 -12 -12 -12 -12 -11 -11 -11 -11 -11 -11 -11 -11 -11 -11 -11 -11 -11 -12 -12 -11 -12 -12 -12 -12 -12 -12 -12 -13 -13 -13 -13
-14 -13 -13 -13 -13 -13 -13 -13 -12 -13 -13 -13 -13 -13 -12 -12 -12 -12 -12 -12 -12 -11 -11 -11 -11 -11 -11 -11 -11 -11 -11 -11 -11 -12 -12 -12 -12 -12 -12 -12 -12 -13 -13 -13 -13 -13 -14
-16 -14 -13 -13 -13 -13 -12 -13 -13 -13 -13 -13 -13 -13 -13 -13 -13 -12 -13 -12 -12 -11 -12 -12 -12 -11 -11 -11 -12 -12 -12 -12 -12 -12 -12 -12 -12 -13 -13 -12 -13 -13 -13 -14 -14 -14 -14
-16 -15 -14 -14 -13 -13 -13 -13 -13 -13 -13 -13 -13 -13 -13 -13 -13 -13 -13 -12 -12 -12 -12 -12 -12 -11 -11 -12 -12 -12 -12 -12 -13 -13 -13 -13 -13 -13 -13 -13 -13 -14 -14 -15 -15 -15 -15
-15 -17 -15 -14 -13 -14 -13 -13 -13 -13 -13 -13 -13 -13 -13 -13 -13 -13 -13 -12 -12 -12 -12 -13 -12 -12 -12 -12 -12 -13 -13 -13 -13 -13 -13 -13 -13 -14 -14 -14 -14 -14 -15 -15 -15 -15 -15
-16 -16 -16 -15 -14 -14 -14 -14 -13 -13 -13 -13 -13 -13 -13 -13 -13 -13 -12 -12 -13 -13 -13 -13 -12 -12 -12 -13 -13 -14 -13 -14 -14 -14 -14 -14 -14 -14 -15 -15 -15 -15 -16 -16 -16 -16 -16
-16 -16 -17 -16 -15 -14 -14 -14 -14 -13 -13 -13 -13 -13 -13 -13 -13 -13 -12 -12 -13 -13 -14 -13 -13 -13 -13 -14 -14 -14 -14 -14 -14 -14 -14 -15 -15 -15 -16 -16 -16 -17 -17 -17 -17 -17 -17
-17 -17 -17 -16 -15 -15 -15 -14 -14 -14 -14 -13 -13 -14 -13 -14 -13 -13 -13 -13 -13 -13 -14 -13 -13 -13 -14 -14 -15 -14 -14 -15 -15 -15 -15 -15 -15 -16 -16 -17 -17 -17 -18 -18 -18 -18 -18
-17 -17 -17 -16 -16 -15 -15 -15 -14 -14 -14 -14 -14 -14 -14 -14 -13 -13 -14 -14 -14 -14 -14 -13 -13 -14 -15 -15 -15 -14 -15 -15 -15 -15 -16 -16 -17 -17 -17 -17 -17 -18 -18 -18 -18 -18 -18
-18 -18 -18 -17 -16 -16 -16 -15 -15 -15 -15 -15 -15 -14 -14 -14 -13 -14 -14 -14 -14 -14 -14 -14 -14 -14 -15 -16 -15 -15 -15 -16 -16 -16 -16 -17 -17 -18 -18 -18 -18 -18 -19 -19 -19 -19 -19
-19 -18 -18 -17 -17 -16 -16 -17 -16 -16 -15 -16 -15 -15 -15 -14 -14 -15 -15 -14 -15 -15 -15 -15 -14 -16 -16 -16 -16 -16 -16 -15 -16 -17 -17 -18 -18 -18 -18 -19 -18 -18 -19 -20 -19 -19 -19
-20 -18 -19 -17 -17 -16 -17 -17 -17 -16 -17 -16 -16 -16 -15 -15 -15 -15 -14 -15 -15 -15 -15 -15 -16 -16 -16 -16 -16 -16 -16 -16 -17 -18 -19 -19 -19 -19 -19 -19 -19 -18 -19 -19 -19 -20 -20
-20 -19 -19 -17 -18 -18 -18 -18 -17 -18 -18 -17 -17 -16 -16 -15 -16 -15 -15 -15 -15 -16 -16 -16 -16 -16 -16 -16 -16 -16 -17 -18 -19 -19 -19 -20 -20 -19 -19 -19 -19 -19 -19 -19 -19 -20 -20
-20 -19 -19 -18 -18 -18 -18 -19 -19 -19 -19 -19 -18 -18 -16 -16 -16 -16 -16 -16 -16 -16 -16 -16 -16 -16 -16 -17 -17 -17 -18 -19 -20 -20 -20 -20 -20 -21 -20 -20 -19 -19 -20 -20 -20 -20 -20
-21 -20 -20 -18 -18 -18 -18 -18 -19 -20 -19 -19 -17 -18 -17 -16 -16 -16 -16 -16 -16 -16 -16 -16 -17 -17 -17 -17 -17 -18 -19 -20 -20 -20 -20 -21 -20 -21 -21 -21 -20 -20 -21 -21 -21 -20 -21
-21 -21 -21 -19 -19 -19 -18 -18 -19 -19 -20 -19 -18 -18 -18 -17 -17 -17 -16 -16 -17 -17 -17 -17 -17 -17 -17 -18 -18 -18 -20 -20 -21 -21 -21 -21 -21 -21 -21 -21 -21 -21 -21 -21 -21 -22 -22
-21 -21 -21 -20 -20 -19 -19 -19 -19 -19 -19 -19 -18 -18 -18 -18 -17 -17 -17 -17 -17 -17 -18 -18 -18 -18 -18 -18 -19 -19 -20 -21 -22 -21 -21 -21 -21 -21 -22 -22 -21 -21 -22 -22 -22 -22 -23
-21 -22 -22 -21 -21 -20 -19 -19 -20 -19 -19 -19 -18 -18 -18 -18 -18 -17 -17 -17 -17 -18 -18 -18 -18 -19 -19 -19 -20 -21 -22 -22 -22 -22 -21 -21 -21 -22 -22 -22 -22 -22 -22 -23 -23 -23 -23
Height
5805 5807 5809 5811 5813 5814 5815 5816 5817 5819 5820 5820 5820 5821 5821 5821 5821 5821 5821 5820 5819 5819 5819 5818 5818 5817 5816 5815 5814 5812 5811 5810 5809 5808 5808 5807 5806 5806 5806 5806 5807 5808 5808 5808 5809 5810 5812
5801 5803 5805 5807 5809 5811 5812 5814 5815 5816 5817 5817 5818 5818 5819 5819 5819 5820 5820 5820 5819 5818 5818 5818 5817 5817 5816 5816 5813 5811 5810 5809 5808 5807 5807 5806 5806 5806 5805 5805 5806 5807 5808 5808 5808 5809 5810
5795 5798 5800 5803 5804 5806 5808 5810 5811 5812 5813 5814 5815 5816 5816 5817 5817 5818 5818 5818 5818 5818 5817 5817 5816 5816 5815 5815 5812 5810 5809 5807 5806 5806 5805 5805 5805 5805 5804 5804 5804 5805 5806 5807 5808 5808 5809
5790 5792 5795 5797 5800 5802 5804 5806 5807 5809 5810 5811 5812 5813 5814 5815 5815 5816 5816 5817 5817 5817 5816 5815 5814 5814 5813 5812 5811 5809 5807 5806 5804 5804 5803 5803 5803 5803 5802 5802 5802 5802 5803 5805 5805 5806 5806
5782 5785 5788 5792 5794 5797 5798 5801 5803 5804 5806 5807 5808 5810 5811 5812 5812 5812 5814 5814 5814 5814 5814 5813 5813 5812 5812 5811 5809 5807 5806 5804 5803 5802 5801 5801 5800 5800 5800 5799 5799 5799 5800 5801 5802 5802 5802
5774 5778 5781 5785 5788 5791 5793 5795 5797 5800 5801 5803 5804 5806 5807 5808 5808 5809 5810 5811 5811 5811 5811 5810 5810 5811 5809 5808 5806 5805 5804 5803 5802 5800 5799 5798 5797 5797 5796 5796 5796 5797 5796 5796 5798 5798 5798
5764 5769 5773 5777 5781 5784 5787 5789 5791 5794 5796 5798 5799 5801 5803 5804 5805 5805 5807 5807 5809 5809 5807 5807 5807 5806 5805 5804 5804 5802 5801 5800 5799 5798 5797 5795 5795 5793 5793 5792 5792 5791 5792 5792 5793 5791 5793
5755 5759 5764 5768 5773 5776 5780 5783 5785 5788 5790 5793 5794 5796 5798 5799 5800 5801 5802 5803 5803 5804 5804 5803 5802 5802 5801 5800 5800 5799 5798 5798 5796 5795 5793 5793 5791 5790 5789 5788 5788 5787 5787 5787 5787 5787 5787
5742 5748 5753 5758 5763 5768 5772 5775 5778 5781 5783 5786 5789 5791 5792 5793 5795 5796 5797 5798 5798 5798 5799 5799 5798 5798 5797 5797 5796 5795 5794 5793 5792 5791 5789 5788 5788 5786 5785 5784 5783 5782 5781 5780 5781 5780 5780
5730 5737 5743 5748 5753 5759 5763 5767 5770 5774 5776 5779 5782 5784 5787 5788 5791 5791 5792 5792 5793 5793 5794 5795 5794 5794 5793 5792 5792 5791 5790 5790 5788 5786 5785 5784 5783 5782 5780 5779 5778 5777 5775 5774 5773 5773 5774
5718 5723 5730 5737 5743 5748 5753 5757 5761 5766 5769 5772 5774 5777 5780 5782 5784 5785 5786 5786 5787 5788 5789 5790 5789 5789 5788 5789 5788 5787 5786 5784 5783 5782 5782 5780 5778 5776 5775 5774 5772 5771 5769 5768 5766 5765 5765
5705 5712 5717 5724 5732 5737 5743 5748 5752 5756 5760 5764 5767 5769 5773 5775 5778 5779 5780 5780 5781 5784 5783 5785 5784 5783 5783 5782 5782 5780 5780 5780 5779 5778 5776 5775 5773 5772 5770 5769 5767 5765 5764 5762 5760 5759 5758
5695 5700 5707 5712 5720 5726 5732 5737 5741 5746 5751 5755 5758 5761 5764 5767 5769 5772 5773 5773 5775 5776 5779 5779 5778 5778 5778 5778 5777 5775 5774 5773 5773 5772 5771 5769 5768 5767 5765 5763 5761 5759 5757 5755 5753 5751 5750
5685 5689 5693 5700 5707 5714 5719 5725 5730 5736 5740 5743 5748 5752 5755 5758 5761 5763 5765 5766 5766 5770 5772 5770 5771 5771 5772 5771 5771 5769 5768 5768 5767 5764 5763 5762 5762 5760 5759 5757 5755 5752 5750 5749 5744 5742 5740
5675 5676 5682 5689 5694 5701 5707 5713 5719 5724 5729 5733 5737 5741 5745 5749 5751 5754 5757 5755 5759 5763 5765 5763 5762 5762 5765 5764 5763 5762 5761 5762 5761 5759 5758 5754 5754 5752 5750 5748 5747 5745 5744 5742 5739 5737 5733
5662 5667 5671 5677 5682 5687 5694 5700 5707 5712 5717 5722 5727 5731 5735 5738 5741 5744 5746 5747 5751 5755 5755 5755 5755 5755 5756 5756 5756 5755 5753 5755 5753 5752 5750 5749 5747 5746 5744 5741 5740 5738 5737 5734 5732 5728 5725
5650 5657 5661 5668 5671 5675 5683 5689 5695 5701 5706 5711 5715 5720 5725 5729 5732 5734 5735 5740 5743 5746 5747 5746 5746 5747 5746 5748 5747 5746 5746 5747 5744 5744 5742 5741 5740 5739 5737 5734 5731 5729 5727 5725 5723 5721 5716
5638 5646 5650 5658 5662 5665 5672 5678 5684 5690 5695 5700 5704 5708 5715 5718 5721 5723 5726 5730 5734 5737 5736 5737 5737 5738 5738 5738 5737 5737 5738 5737 5737 5735 5733 5732 5730 5729 5729 5726 5723 5721 5719 5717 5714 5711 5708
5624 5632 5639 5647 5650 5654 5660 5667 5673 5678 5685 5689 5693 5698 5703 5706 5708 5712 5717 5719 5721 5725 5727 5726 5728 5728 5728 5728 5728 5728 5728 5728 5727 5726 5724 5724 5722 5721 5720 5719 5717 5713 5711 5708 5705 5703 5703
5611 5619 5627 5637 5640 5643 5649 5656 5662 5668 5673 5679 5682 5685 5690 5694 5698 5701 5705 5708 5711 5714 5715 5716 5717 5717 5718 5719 5718 5718 5719 5719 5718 5716 5715 5714 5714 5713 5712 5709 5707 5705 5703 5699 5696 5695 5690
5597 5607 5615 5626 5630 5631 5635 5643 5652 5657 5663 5666 5668 5673 5679 5683 5688 5691 5695 5697 5700 5702 5705 5705 5705 5706 5707 5707 5708 5709 5710 5709 5708 5706 5706 5704 5704 5704 5701 5699 5697 5694 5693 5691 5687 5685 5680
5583 5594 5603 5614 5618 5623 5626 5628 5637 5646 5651 5652 5656 5662 5667 5672 5675 5680 5683 5686 5689 5691 5694 5694 5695 5696 5695 5697 5700 5699 5699 5698 5697 5696 5695 5694 5694 5693 5692 5689 5688 5685 5684 5680 5679 5676 5670
5569 5582 5592 5601 5609 5614 5613 5618 5623 5631 5636 5639 5645 5652 5655 5659 5663 5668 5673 5677 5679 5680 5682 5683 5683 5683 5684 5688 5687 5687 5688 5687 5687 5686 5684 5684 5684 5683 5682 5680 5676 5678 5674 5670 5670 5664 5657
5555 5567 5579 5589 5598 5603 5604 5606 5610 5618 5623 5627 5632 5637 5641 5645 5651 5657 5663 5666 5668 5670 5670 5671 5672 5673 5676 5676 5676 5676 5677 5676 5676 5676 5674 5674 5672 5671 5670 5668 5667 5665 5662 5660 5655 5652 5645
5541 5554 5565 5575 5585 5591 5596 5598 5603 5609 5614 5620 5625 5627 5631 5637 5642 5646 5651 5654 5658 5658 5658 5660 5661 5663 5664 5664 5664 5665 5664 5665 5666 5665 5665 5664 5662 5660 5658 5658 5657 5656 5652 5647 5641 5641 5634
5528 5540 5552 5561 5571 5578 5585 5590 5595 5601 5609 5612 5616 5619 5622 5628 5633 5636 5639 5643 5645 5647 5647 5648 5650 5652 5651 5653 5653 5652 5654 5655 5655 5655 5656 5655 5652 5651 5648 5646 5645 5644 5638 5631 5627 5627 5620
5515 5528 5539 5548 5558 5568 5576 5582 5588 5593 5600 5605 5608 5611 5614 5618 5622 5625 5627 5631 5634 5635 5636 5638 5640 5641 5642 5642 5641 5642 5642 5644 5644 5646 5647 5645 5642 5640 5637 5634 5635 5633 5623 5617 5614 5611 5604
5503 5517 5529 5538 5548 5559 5567 5573 5579 5585 5590 5596 5600 5603 5606 5608 5612 5616 5618 5621 5622 5624 5627 5629 5629 5629 5631 5630 5631 5632 5632 5634 5634 5637 5636 5635 5632 5630 5626 5622 5619 5617 5611 5606 5601 5594 5587
5493 5506 5518 5528 5538 5549 5553 5564 5570 5575 5581 5586 5590 5594 5596 5600 5602 5605 5609 5611 5612 5614 5617 5616 5619 5619 5619 5619 5621 5622 5624 5626 5627 5628 5627 5625 5622 5619 5616 5610 5604 5601 5597 5593 5587 5581 5571
Wind_Speed
19 17 16 17 17 16 16 14 13 12 10 9 8 7 6 5 4 3 1 0 2 3 4 7 8 9 9 9 11 10 10 10 9 7 6 5 6 6 7 8 6 7 6 7 8 8 8
23 21 20 19 19 18 17 16 15 14 12 11 9 9 8 7 6 4 3 2 1 1 3 4 6 7 10 10 11 12 12 11 10 9 9 8 6 7 9 9 8 8 8 9 9 9 10
26 25 24 23 22 21 20 19 18 16 14 13 11 10 10 10 8 7 6 5 4 3 4 4 5 8 11 10 12 14 13 11 11 11 10 10 10 9 9 9 10 10 10 9 10 11 12
30 28 27 26 24 23 22 21 20 18 17 15 13 12 12 11 10 9 9 7 6 5 6 7 7 10 12 9 10 14 13 12 10 11 12 13 12 12 12 12 12 13 12 11 14 13 14
34 32 30 28 27 26 24 22 21 20 19 18 16 15 15 14 11 11 11 9 9 10 11 11 12 13 12 11 12 13 12 12 12 12 13 14 15 15 14 13 15 16 16 17 16 17 17
39 36 34 31 30 28 27 24 22 21 20 19 18 18 17 17 15 14 13 12 11 12 12 13 14 13 14 15 16 16 12 12 12 13 12 13 13 15 16 16 16 14 18 18 18 21 21
44 42 38 36 34 32 30 28 26 24 22 21 19 19 19 18 17 17 16 14 13 14 14 14 13 14 15 16 16 16 14 15 15 15 14 13 13 13 15 17 19 20 20 21 20 23 22
50 46 43 40 38 36 34 33 30 28 26 24 23 21 21 21 20 20 19 18 17 16 16 16 16 16 17 17 18 15 15 18 19 19 17 17 15 15 15 17 18 20 22 22 23 23 22
55 52 48 45 42 40 38 36 35 32 30 28 27 26 24 23 24 22 22 21 21 20 19 18 19 19 20 19 17 17 19 20 20 20 21 19 18 18 18 19 20 22 23 23 23 25 24
58 56 54 50 46 44 41 39 37 36 34 32 30 28 28 26 26 26 24 24 24 23 20 20 20 20 19 18 17 19 22 22 21 21 21 21 21 22 22 22 22 22 25 25 26 26 24
51 56 60 55 52 50 47 43 41 39 38 36 33 31 29 28 27 27 26 26 25 20 19 17 16 16 18 20 23 21 22 22 22 23 22 22 22 23 23 24 25 25 25 26 27 27 27
51 55 57 63 57 54 51 48 46 44 42 40 38 35 33 32 30 29 28 30 28 25 24 22 22 20 20 19 22 22 23 23 26 25 25 25 24 23 25 27 28 29 30 30 30 31 31
44 55 59 50 55 60 59 54 52 49 48 44 42 41 37 37 35 33 31 33 34 30 28 26 24 23 22 24 26 26 25 25 26 27 27 27 26 27 28 29 31 32 33 33 34 31 31
48 47 51 56 57 58 55 55 55 51 50 51 48 46 43 41 39 37 36 38 39 34 30 29 27 27 27 28 29 30 30 29 30 28 27 27 27 28 29 31 33 34 33 32 35 36 38
52 44 45 52 60 60 59 55 53 53 55 52 48 47 44 44 41 41 41 43 37 35 30 31 30 32 30 31 33 32 33 32 32 32 30 30 29 28 29 30 32 32 32 34 35 37 40
55 59 45 51 57 55 54 56 56 55 55 51 49 48 44 43 43 43 44 42 38 32 33 34 34 34 33 32 35 34 35 34 32 31 31 31 32 30 31 31 33 34 35 36 36 41 44
56 60 50 51 55 49 52 53 53 56 57 55 52 50 46 45 46 45 45 41 39 35 35 37 36 36 37 34 37 35 36 32 32 32 32 32 34 33 32 33 33 35 36 37 39 39 43
57 59 65 49 53 51 52 53 55 57 57 52 50 51 50 47 45 45 45 45 42 38 39 42 40 37 37 36 38 36 34 34 34 34 33 33 35 35 33 34 35 34 35 37 40 40 40
58 58 68 44 57 49 52 54 55 55 51 53 55 54 54 48 48 46 45 44 44 42 41 43 41 39 38 39 37 35 35 35 36 35 37 37 38 37 36 37 36 37 36 37 38 39 37
60 60 67 49 40 48 53 50 53 51 49 52 52 53 55 54 50 50 47 44 44 45 44 44 44 42 39 38 38 38 38 38 38 39 40 40 38 38 39 41 39 38 36 38 39 40 43
62 60 61 57 48 45 44 56 52 53 54 53 53 54 52 54 52 50 49 50 48 46 43 42 43 42 42 44 41 41 41 41 40 43 42 41 41 39 38 39 39 40 39 40 41 40 45
64 64 60 60 45 51 43 38 43 42 41 41 47 47 51 50 51 52 52 51 46 45 43 43 44 43 49 48 45 43 44 46 45 46 42 40 40 40 37 38 39 41 39 41 41 44 48
67 65 65 57 48 58 46 48 42 47 37 43 37 41 44 51 52 53 52 47 46 45 44 41 45 50 52 48 49 46 49 48 45 39 38 41 39 38 39 38 40 39 42 44 45 47 52
67 67 70 62 52 46 40 41 38 36 35 37 27 36 47 46 47 48 48 47 44 43 42 45 47 49 50 52 51 49 48 44 38 38 38 37 36 38 39 41 41 43 45 47 51 54 58
65 69 70 68 60 51 40 36 34 33 32 27 27 30 35 47 42 47 46 45 43 44 45 49 51 52 52 52 51 51 47 43 36 35 34 35 36 39 42 42 44 45 48 52 56 58 61
67 68 68 70 55 55 47 37 40 38 33 30 32 25 27 35 41 43 46 47 48 49 50 51 49 50 52 51 52 46 42 38 38 35 32 35 39 40 41 44 48 50 52 57 61 61 56
68 67 66 65 54 49 46 43 43 41 36 35 32 31 30 42 36 42 45 45 45 48 50 52 51 50 49 49 49 45 40 39 34 32 33 37 38 40 40 45 52 52 56 59 57 56 56
67 67 67 62 54 49 46 49 47 45 41 39 35 34 31 36 46 46 48 48 48 48 46 48 49 51 50 50 47 39 37 31 30 32 36 38 41 40 43 50 56 55 55 53 53 56 60
68 65 69 62 59 55 43 52 49 47 44 42 36 33 32 34 42 41 44 47 46 47 46 48 50 45 46 43 37 30 28 30 32 36 36 39 39 41 47 55 52 51 50 51 54 60 66
Wind_Direction
233 230 228 225 223 224 226 231 236 245 255 268 275 282 280 261 280 288 315 55 37 34 39 39 31 23 16 4 354 351 343 334 330 325 324 318 314 309 297 295 299 300 304 296 295 292 289
233 231 228 227 226 227 228 233 239 246 253 257 263 269 254 248 252 268 278 265 283 358 13 21 18 15 8 1 354 345 333 325 321 320 316 311 301 298 296 294 290 289 287 288 288 285 289
234 232 231 230 228 230 231 232 237 241 245 251 258 257 246 250 245 246 252 257 268 303 317 330 345 344 341 338 349 348 338 322 313 311 311 310 302 293 287 285 287 286 284 278 274 276 278
234 234 234 232 232 231 233 235 237 241 245 246 250 251 248 254 254 254 252 256 274 297 301 302 311 324 333 326 331 345 347 342 319 304 301 301 300 298 292 285 279 278 280 279 277 276 273
235 234 234 235 234 234 233 234 236 236 241 245 248 249 248 252 254 256 257 257 267 282 291 295 298 304 313 322 328 333 339 345 336 317 302 296 293 292 291 288 281 281 281 278 276 276 275
235 235 236 235 235 235 234 231 234 237 238 242 245 247 249 251 251 250 250 257 270 283 293 295 296 299 302 306 313 321 317 329 336 334 320 309 301 296 292 289 286 277 279 280 281 278 278
232 235 234 237 236 234 235 234 233 237 241 243 244 247 249 252 251 250 251 259 270 282 289 293 295 303 306 305 312 317 309 312 317 321 319 315 310 299 295 293 292 292 287 285 283 281 279
234 233 235 233 237 236 235 237 236 237 240 244 247 247 250 252 251 249 253 262 271 279 286 288 291 299 305 307 309 310 306 309 308 308 309 308 307 304 300 297 296 295 293 292 289 284 284
230 232 233 235 235 236 238 238 239 238 239 243 246 250 250 252 254 252 255 263 270 275 279 282 287 291 296 298 296 295 302 305 305 309 313 310 307 307 306 302 297 294 292 292 291 289 289
230 234 233 234 236 238 238 239 242 243 242 242 245 248 251 253 254 255 256 262 268 273 276 283 286 291 293 291 288 294 300 304 304 308 310 308 307 309 306 304 305 302 300 297 295 293 290
238 233 233 233 235 237 238 238 240 243 246 245 245 247 249 252 254 254 255 258 266 265 280 283 289 291 294 295 296 296 301 303 303 307 306 306 305 307 307 304 304 304 301 298 294 293 291
234 228 237 232 234 238 239 239 241 242 243 246 247 247 249 250 252 254 254 257 259 266 282 285 286 289 288 289 291 293 295 299 304 304 303 304 305 305 307 306 304 302 299 297 295 295 295
246 237 232 239 236 239 239 239 241 244 245 244 247 248 248 252 251 254 256 259 261 265 277 280 283 286 289 287 290 289 287 289 296 298 299 300 304 305 306 306 305 302 299 298 294 294 294
261 241 229 239 236 235 237 237 242 244 246 248 248 247 249 249 252 254 256 262 262 264 266 271 276 282 289 289 290 290 288 289 294 294 295 297 299 301 305 305 304 301 298 295 294 295 296
258 233 226 228 236 235 233 231 237 241 244 246 244 246 250 249 253 253 254 261 261 263 264 268 275 278 283 284 285 284 285 289 293 294 296 296 295 296 298 300 302 299 293 291 291 291 292
251 259 247 229 225 228 232 236 237 239 241 240 243 243 247 248 251 255 253 255 257 259 262 266 274 277 280 280 281 282 285 292 292 291 294 296 295 297 297 300 299 297 294 291 291 292 292
244 255 255 232 224 220 226 232 234 236 238 240 239 240 243 248 251 253 251 256 256 257 262 266 270 273 278 276 276 278 283 290 290 290 292 294 296 296 293 293 293 291 290 290 290 288 289
237 246 253 236 225 218 224 229 231 234 237 239 237 237 242 246 251 248 251 256 257 253 258 266 269 272 274 275 274 279 286 286 289 288 288 289 291 293 291 288 288 286 287 287 286 286 287
235 237 250 230 222 218 219 225 230 235 237 236 237 241 243 244 248 250 252 255 256 254 261 266 268 270 270 271 273 280 282 285 286 286 289 290 289 289 288 287 286 285 285 285 285 287 293
231 235 240 227 217 218 214 222 222 228 228 229 230 233 237 240 249 254 255 254 256 259 262 263 268 271 272 275 275 279 282 284 284 284 286 288 286 286 286 286 284 284 284 286 288 292 288
229 228 237 236 214 205 206 218 222 224 227 231 236 240 241 244 248 253 254 256 255 258 261 264 269 270 272 274 277 280 281 280 280 281 283 282 281 280 279 280 283 286 289 291 293 296 294
227 222 232 228 225 205 198 208 211 215 222 229 230 236 240 244 245 246 251 255 256 261 264 265 266 266 265 272 278 277 275 276 275 277 278 275 276 278 276 280 283 285 292 293 296 296 297
227 223 228 220 223 212 205 199 202 202 212 228 233 238 241 240 243 245 250 254 258 259 262 262 258 259 265 269 273 271 270 269 270 271 272 274 276 276 279 281 283 288 288 294 296 298 298
226 221 227 219 219 219 202 198 197 213 220 227 233 237 232 236 241 244 247 254 257 256 258 258 260 261 265 268 268 265 266 268 264 264 269 273 278 280 283 285 284 286 291 295 296 297 300
225 220 225 221 216 219 220 212 214 226 233 236 248 256 240 235 242 243 246 252 254 255 258 258 258 261 263 264 264 269 268 267 268 265 270 276 280 282 282 284 286 291 296 298 296 296 303
220 218 224 226 217 221 221 221 226 229 231 243 244 250 237 252 248 250 248 250 250 254 257 259 258 260 261 265 269 267 263 260 260 265 274 278 279 282 288 291 292 294 300 297 297 303 303
215 215 221 224 218 219 220 227 230 234 234 240 246 248 253 251 260 252 246 250 250 255 251 254 259 263 264 263 261 257 253 258 259 267 276 279 284 288 294 296 295 301 297 299 303 306 307
210 212 216 218 219 221 229 228 232 236 240 245 245 248 256 251 255 259 253 253 254 252 252 252 252 256 256 253 255 256 254 264 273 277 280 284 288 293 298 301 299 299 299 303 306 308 311
211 208 216 213 217 215 227 226 232 238 243 250 253 246 256 257 259 257 255 252 248 245 239 243 249 249 252 252 255 257 265 267 273 278 282 285 290 298 301 298 298 300 304 307 311 315 320